[[{"header":{"parameterUnit":"m.s-1","parameterCategory":1,"la1":30.2991,"la2":30.254,"lo1":-89.0895,"lo2":-89.0444,"dy":0.0017,"dx":0.0017,"nx":28,"ny":28,"refTime":"2023-10-18T03:00:00:Z","depth":0,"parameterNumber":2,"parameterNumberName":"U-component_of_WINDS"},"data":[0,0,0,0,0,0,0,0,0,0,0,0,0,0,0,0,0,0,0,0,0,0,0,0,0,0,0,0,0,0,0,0,0,0,0,0,0,0,0,0,0,0,0,0,0,0,0,0,0,0,0,0,0,0,0,0,0,0,1.8557,1.8558,0,1.8632,1.8633,1.8634,1.863,1.8629,1.8628,1.8627,1.8708,1.8711,1.8714,0,0,0,0,0,0,0,0,0,0,0,0,0,1.8415,1.8418,1.8557,1.8558,1.8559,1.8632,1.8633,1.8634,1.8631,1.8629,1.8628,1.8627,1.8707,1.8711,1.8715,0,0,0,0,0,0,0,0,0,0,0,0,0,1.8482,1.8419,1.8557,1.8566,1.8567,1.8632,1.8633,1.8634,1.8631,1.8629,1.8628,1.8626,1.8706,1.871,1.8715,1.8776,0,0,1.873,1.8732,0,0,0,0,0,0,0,0,1.8479,1.8488,1.8564,1.8565,1.8567,1.862,1.8613,1.8682,1.8631,1.8607,1.8627,1.8625,1.868,1.8687,1.8705,1.878,1.8784,1.873,1.8733,1.8735,1.8736,0,0,0,0,0,0,0,1.8474,1.8484,1.8587,1.8565,1.8567,1.8568,1.8575,1.8626,1.8652,1.8609,1.8609,1.8618,1.8681,1.87,1.8707,1.8785,1.873,1.8734,1.8737,1.8739,1.8915,1.8917,0,0,0,0,0,0,1.8467,1.848,1.8584,1.8589,1.8518,1.8571,1.858,1.8605,1.8651,1.8657,1.8619,1.8617,1.8693,1.8701,1.871,1.8784,1.8735,1.8739,1.8742,1.8913,1.8915,1.8917,0,0,0,0,0,0,1.8464,1.8476,1.8581,1.8535,1.8548,1.8576,1.8603,1.8607,1.8626,1.8659,1.8664,1.8633,1.8692,1.8703,1.876,1.8787,1.8741,1.8746,1.8911,1.8914,1.8916,1.8935,0,0,0,0,0,0,1.846,1.8475,1.8497,1.8535,1.8551,1.8629,1.8605,1.861,1.8634,1.8632,1.8674,1.8679,1.8692,1.8752,1.8764,1.8793,1.8749,1.8908,1.8912,1.8915,1.8932,1.8938,1.8943,0,0,0,0,0,1.8455,1.8501,1.8499,1.8511,1.8579,1.8631,1.864,1.8652,1.8636,1.866,1.8681,1.8678,1.8782,1.8758,1.8772,1.8802,1.8907,1.8911,1.8915,1.8929,1.8936,1.8943,0,0,0,0,0,0,1.8467,1.8506,1.8504,1.8563,1.8593,1.863,1.866,1.8659,1.8696,1.8693,1.8708,1.8717,1.8774,1.8794,1.8767,1.8864,1.8843,1.885,1.8849,1.8856,1.8861,1.8856,1.8753,0,0,0,0,0,1.8476,1.8513,1.8546,1.8595,1.861,1.8632,1.8655,1.8662,1.8694,1.8708,1.8733,1.8766,1.8806,1.8832,1.8871,1.8935,1.8944,1.8962,1.8968,1.8972,1.8978,1.9013,1.9022,1.8931,1.8931,1.8931,0,0,1.8496,1.8522,1.8545,1.8598,1.8622,1.8661,1.8643,1.8685,1.8715,1.8715,1.8769,1.8789,1.8827,1.8887,1.8915,1.8905,1.9005,1.8977,1.8981,1.8984,1.9018,1.9027,1.9035,1.8934,1.8933,1.8933,0,0,1.8553,1.8576,1.8619,1.8643,1.868,1.8694,1.8705,1.8742,1.8754,1.8809,1.8809,1.8846,1.8915,1.8941,1.8964,1.9031,1.903,1.9044,1.9073,1.9107,1.9114,1.9121,1.9145,1.9153,1.9049,1.905,1.905,0,1.8573,1.8631,1.8642,1.8684,1.8708,1.8708,1.8753,1.8777,1.8825,1.8842,1.883,1.8916,1.8942,1.9008,1.9025,1.9043,1.9056,1.9039,1.9112,1.9119,1.9125,1.9148,1.9157,1.9051,1.9051,1.9051,1.905,0,1.8655,1.8695,1.8726,1.8771,1.8798,1.8842,1.886,1.8887,1.8892,1.8908,1.8964,1.8995,1.904,1.9056,1.9062,1.9124,1.9117,1.9108,1.9087,1.9135,1.9157,1.9166,1.9053,1.9052,1.9052,1.9052,0,0,1.8721,1.8771,1.8782,1.8802,1.8843,1.8875,1.8919,1.8961,1.8984,1.9018,1.9055,1.9114,1.9106,1.9132,1.914,1.9171,1.9222,1.9159,1.916,1.9169,1.9293,1.9298,1.9308,1.9221,1.9223,1.9224,1.9289,0,1.8781,1.8858,1.8869,1.8937,1.8975,1.8975,1.9014,1.9044,1.906,1.9096,1.9115,1.9155,1.9142,1.9158,1.9188,1.9209,1.9247,1.9205,1.9258,1.9259,1.9248,1.932,1.9326,1.9386,1.9298,1.93,1.9301,0,1.8862,1.8896,1.8967,1.9002,1.9019,1.9053,1.9093,1.9127,1.9161,1.9171,1.9199,1.9204,1.9251,1.9228,1.9294,1.9265,1.9287,1.9301,1.9304,1.9309,1.9283,1.9327,1.9406,1.9414,1.9314,1.9313,1.9312,0,1.8903,1.8967,1.9018,1.9035,1.9078,1.9102,1.9121,1.9153,1.9178,1.9214,1.923,1.9272,1.9294,1.9327,1.9343,1.9325,1.9408,1.9386,1.9418,1.9417,1.9435,1.9434,1.9518,1.945,1.945,1.945,1.9449,0,1.8969,1.9013,1.9036,1.9068,1.9117,1.913,1.9179,1.9198,1.9227,1.9262,1.9266,1.93,1.932,1.9357,1.9371,1.9423,1.9433,1.9443,1.9446,1.9443,1.9441,1.9458,1.9454,1.9452,1.9451,1.9451,1.9451,0,1.9023,1.9041,1.9096,1.9131,1.9141,1.9176,1.9207,1.9238,1.9254,1.93,1.9311,1.9338,1.9381,1.9401,1.9456,1.9465,1.9524,1.9524,1.9512,1.9513,1.9544,1.9541,1.9642,1.9655,1.9578,1.9579,1.958,0,1.9064,1.9098,1.9136,1.916,1.9179,1.9217,1.9243,1.9258,1.9284,1.9325,1.9352,1.9395,1.9431,1.9501,1.9526,1.9568,1.9569,1.9601,1.9575,1.9571,1.9569,1.9567,1.9571,1.9606,1.9607,1.9607,1.9608,0,1.9135,1.9142,1.9178,1.9216,1.9246,1.9278,1.9309,1.9328,1.9348,1.9378,1.9422,1.9449,1.9505,1.9548,1.9591,1.9613,1.9614,1.9616,1.9626,1.9622,1.9614,1.9619,1.9525,1.9614,1.9613,1.9613,1.9612,1.9612,1.9184,1.9214,1.9245,1.9285,1.931,1.9338,1.9369,1.9389,1.9426,1.9471,1.9478,1.9525,1.9559,1.9617,1.964,1.9678,1.967,1.9684,1.9688,1.9691,1.9692,1.9608,1.9686,1.9686,1.9686,1.9686,1.9685,0,1.9255,1.9275,1.9312,1.9354,1.9386,1.9383,1.9417,1.9444,1.9485,1.9516,1.9551,1.9602,1.9644,1.9672,1.9715,1.974,1.9742,1.9751,1.9749,1.9754,1.9697,1.9684,1.9749,1.9749,1.9749,1.9749,1.9748,1.9748,1.9296,1.9346,1.9357,1.9419,1.944,1.9485,1.9505,1.9532,1.9556,1.9613,1.9647,1.9665,1.9695,1.974,1.9779,1.9786,1.9802,1.9811,1.9818,1.9765,1.9758,1.9752,1.974,1.9815,1.9815,1.9872,1.9872,1.9873]},{"header":{"parameterUnit":"m.s-1","parameterCategory":1,"la1":30.2991,"la2":30.254,"lo1":-89.0895,"lo2":-89.0444,"dy":0.0017,"dx":0.0017,"nx":28,"ny":28,"refTime":"2023-10-18T03:00:00:Z","depth":0,"parameterNumber":3,"parameterNumberName":"V-component_of_WINDS"},"data":[0,0,0,0,0,0,0,0,0,0,0,0,0,0,0,0,0,0,0,0,0,0,0,0,0,0,0,0,0,0,0,0,0,0,0,0,0,0,0,0,0,0,0,0,0,0,0,0,0,0,0,0,0,0,0,0,0,0,0.8442,0.8441,0,0.8422,0.8422,0.8421,0.836,0.8358,0.8357,0.8356,0.8334,0.8334,0.8335,0,0,0,0,0,0,0,0,0,0,0,0,0,0.8422,0.8423,0.8442,0.8441,0.8441,0.8422,0.8422,0.8421,0.836,0.8358,0.8357,0.8355,0.8333,0.8334,0.8335,0,0,0,0,0,0,0,0,0,0,0,0,0,0.8419,0.8423,0.8442,0.8408,0.8405,0.8422,0.8421,0.8421,0.836,0.8358,0.8356,0.8354,0.8333,0.8334,0.8335,0.8382,0,0,0.8338,0.8339,0,0,0,0,0,0,0,0,0.8419,0.842,0.8413,0.8411,0.8407,0.8391,0.8406,0.8408,0.8361,0.8377,0.8356,0.8353,0.8354,0.8353,0.8354,0.8381,0.838,0.8338,0.8339,0.8339,0.834,0,0,0,0,0,0,0,0.842,0.842,0.8434,0.8413,0.841,0.8393,0.839,0.8406,0.8377,0.8376,0.8371,0.837,0.8352,0.8353,0.8353,0.838,0.8338,0.8339,0.834,0.834,0.8438,0.844,0,0,0,0,0,0,0.8425,0.8421,0.8434,0.8433,0.8408,0.8395,0.8392,0.8398,0.8377,0.8372,0.8372,0.8367,0.8353,0.8352,0.8352,0.8401,0.8339,0.834,0.8341,0.8436,0.8438,0.8441,0,0,0,0,0,0,0.8425,0.8427,0.8435,0.8426,0.8426,0.8397,0.8405,0.8399,0.84,0.8374,0.8368,0.8378,0.8351,0.8351,0.8374,0.84,0.8341,0.8342,0.8434,0.8437,0.844,0.8503,0,0,0,0,0,0,0.8425,0.8427,0.8446,0.8427,0.8426,0.8459,0.8407,0.84,0.8402,0.8396,0.8379,0.8374,0.8349,0.8373,0.8375,0.84,0.8343,0.8431,0.8435,0.8439,0.8499,0.8508,0.8516,0,0,0,0,0,0.8424,0.8466,0.8448,0.8449,0.845,0.8461,0.846,0.8432,0.8405,0.8422,0.8404,0.8374,0.8397,0.8376,0.8378,0.8404,0.8429,0.8434,0.8438,0.8495,0.8506,0.8516,0,0,0,0,0,0,0.849,0.8463,0.8442,0.8479,0.8472,0.845,0.8472,0.8446,0.8446,0.844,0.8404,0.8401,0.8428,0.8419,0.8395,0.8445,0.8408,0.8413,0.845,0.8461,0.847,0.847,0.8343,0,0,0,0,0,0.8508,0.8521,0.8496,0.8531,0.8528,0.8501,0.8505,0.8483,0.8474,0.8471,0.8456,0.8448,0.8452,0.8457,0.846,0.8497,0.849,0.8516,0.8525,0.8532,0.8536,0.855,0.856,0.8455,0.8455,0.8455,0,0,0.8547,0.8534,0.8544,0.8543,0.8536,0.8547,0.8499,0.8514,0.8521,0.8473,0.8493,0.8481,0.847,0.8499,0.8511,0.8492,0.8563,0.8538,0.8544,0.8544,0.8556,0.8566,0.8575,0.8458,0.8458,0.8457,0,0,0.8622,0.8616,0.8641,0.8634,0.8623,0.8603,0.8609,0.859,0.858,0.86,0.8563,0.857,0.8581,0.8572,0.857,0.8638,0.8608,0.864,0.8685,0.8699,0.8707,0.8714,0.8735,0.8743,0.8645,0.8645,0.8645,0,0.8672,0.8689,0.8658,0.8674,0.8673,0.863,0.8653,0.8648,0.8638,0.8638,0.8617,0.8625,0.8615,0.8639,0.8655,0.8656,0.8659,0.8641,0.8709,0.8716,0.8722,0.874,0.8749,0.8648,0.8648,0.8648,0.8647,0,0.8747,0.8759,0.8781,0.8772,0.8773,0.8794,0.8764,0.8769,0.8746,0.8729,0.8746,0.8732,0.8729,0.8734,0.8713,0.8754,0.8742,0.8716,0.8677,0.8736,0.8752,0.876,0.8654,0.8652,0.8651,0.865,0,0,0.8864,0.8835,0.8843,0.8836,0.8819,0.8827,0.8844,0.8841,0.8844,0.8838,0.8849,0.8857,0.8831,0.8828,0.8805,0.8818,0.8867,0.8789,0.8788,0.8801,0.8906,0.8924,0.8933,0.8848,0.885,0.8851,0.8906,0,0.8933,0.896,0.8931,0.8963,0.8971,0.8929,0.8942,0.8932,0.8915,0.8918,0.8899,0.8903,0.8871,0.8868,0.8879,0.8859,0.8887,0.8855,0.8855,0.8855,0.8856,0.8943,0.8963,0.9016,0.8913,0.8914,0.8915,0,0.9017,0.9013,0.9046,0.9022,0.9024,0.9038,0.903,0.9035,0.902,0.9007,0.9002,0.8973,0.8985,0.8949,0.8962,0.8941,0.8939,0.8929,0.893,0.8927,0.8887,0.8939,0.9032,0.9039,0.8926,0.8925,0.8924,0,0.9093,0.9097,0.9116,0.9112,0.9086,0.9095,0.9085,0.9069,0.9067,0.9061,0.9059,0.9054,0.9051,0.9046,0.9016,0.8994,0.9032,0.8995,0.9018,0.9019,0.9027,0.9026,0.9118,0.9031,0.9031,0.903,0.903,0,0.9171,0.9192,0.9149,0.9161,0.9181,0.9147,0.9168,0.9153,0.9138,0.9144,0.9107,0.9113,0.9074,0.9075,0.9052,0.9064,0.9064,0.9051,0.9044,0.9052,0.9054,0.9049,0.9043,0.9033,0.9032,0.9032,0.9031,0,0.926,0.9233,0.925,0.9223,0.9216,0.9232,0.9208,0.9216,0.9196,0.9204,0.9203,0.9171,0.917,0.914,0.9133,0.9117,0.9137,0.9125,0.9142,0.9136,0.916,0.9157,0.925,0.9259,0.9169,0.917,0.9171,0,0.931,0.9325,0.9298,0.9299,0.929,0.9293,0.9291,0.9257,0.9256,0.9238,0.9247,0.9243,0.9238,0.9237,0.9212,0.9205,0.919,0.9223,0.9189,0.9195,0.9186,0.9184,0.9183,0.923,0.9231,0.9232,0.9233,0,0.94,0.9385,0.9384,0.9376,0.9374,0.9367,0.9358,0.936,0.9322,0.9322,0.932,0.9316,0.9307,0.9302,0.929,0.9277,0.9247,0.9244,0.9248,0.9256,0.9263,0.9255,0.9158,0.9241,0.924,0.924,0.9239,0.9239,0.9468,0.9477,0.9459,0.9458,0.9447,0.9438,0.9442,0.9422,0.942,0.941,0.9389,0.9389,0.9371,0.9351,0.934,0.9338,0.9321,0.9328,0.933,0.9331,0.9334,0.9266,0.9336,0.9336,0.9336,0.9335,0.9335,0,0.9553,0.9539,0.9538,0.9524,0.9522,0.9495,0.9482,0.9481,0.9482,0.9467,0.9462,0.9457,0.9451,0.9425,0.9415,0.9418,0.9404,0.9416,0.9414,0.941,0.9352,0.9348,0.9427,0.9427,0.9427,0.9427,0.9427,0.9427,0.9597,0.9609,0.9592,0.9597,0.9582,0.9582,0.9576,0.9566,0.9554,0.955,0.9544,0.9527,0.9507,0.9495,0.9486,0.9479,0.9475,0.9491,0.9479,0.9424,0.9415,0.9407,0.9402,0.9492,0.9492,0.9536,0.9537,0.9537]}]]